Weather History for KNYC - December, 2012

Change the Weather History Date:

Tuesday, December 4, 2012

  Actual Average Record
Temperature  
Mean Temperature 55 °F 41 °F  
Max Temperature 62 °F 47 °F 74 °F (1998)
Min Temperature 47 °F 36 °F 10 °F (1882)
Degree Days  
Heating Degree Days 10 24  
Month to date heating degree days 64 93  
Since 1 July heating degree days 935 926  
Cooling Degree Days 0 0  
Month to date cooling degree days 0 0  
Year to date cooling degree days 1277 1105  
Growing Degree Days 5 (Base 50)    
Moisture  
Dew Point 49 °F    
Average Humidity 84    
Maximum Humidity 100    
Minimum Humidity 67    
Precipitation  
Precipitation 0.07 in 0.14 in 1.84 in (1983)
Month to date precipitation 0.11 0.57  
Year to date precipitation 33.82 46.51  
Snow  
Snow 0.00 in 0.10 in 7.50 in (1957)
Month to date snowfall 0.0 0.3  
Since 1 July snowfall 4.7 0.6  
Snow Depth 0.00 in    
Sea Level Pressure  
Sea Level Pressure 30.21 in    
Wind  
Wind Speed 3 mph (ESE)    
Max Wind Speed 8 mph    
Max Gust Speed 16 mph    
Visibility 5 miles    
Events Rain    
T = Trace of Precipitation, MM = Missing Value Source: NWS Daily Summary

Daily Weather History Graph

Daily Weather History Graph

Search for Another Location

Airport or City:

Trip Planner

Search our weather history database for the weather conditions in past years. The results will help you decide how hot, cold, wet, or windy it might be!

Date:

Astronomy

Dec. 04, 2012 Rise Set
Actual Time 7:04 AM EST 4:28 PM EST
Civil Twilight 6:33 AM EST 4:58 PM EST
Nautical Twilight 5:59 AM EST 5:33 PM EST
Astronomical Twilight 5:26 AM EST 6:06 PM EST
Moon 10:14 PM EST 10:55 AM EST
Length of Visible Light 10h 25m
Length of Day
9h 24m
Waning Gibbous, 69% of the Moon is Illuminated
Dec 4
Waning Gibbous
Dec 6
Last Quarter
Dec 13
New
Dec 20
First Quarter
Dec 28
Full

Hourly Weather History & Observations

Time (EST) Temp. Dew Point Humidity Pressure Visibility Wind Dir Wind Speed Gust Speed Precip Events Conditions
12:51 AM 48.9 °F 42.1 °F 77% 30.26 in 9.0 mi Calm Calm - N/A   Scattered Clouds
1:51 AM 48.0 °F 43.0 °F 83% 30.27 in 9.0 mi Variable 3.5 mph - N/A   Clear
2:51 AM 48.0 °F 43.0 °F 83% 30.27 in 9.0 mi ENE 3.5 mph - N/A   Overcast
4:04 AM 48.9 °F 43.0 °F 80% 30.28 in 8.0 mi Variable 4.6 mph - N/A   Overcast
4:16 AM 48.9 °F 43.0 °F 80% 30.29 in 8.0 mi Calm Calm - N/A   Overcast
4:51 AM 48.9 °F 44.1 °F 83% 30.26 in 8.0 mi ENE 3.5 mph - N/A   Overcast
5:51 AM 48.9 °F 44.1 °F 83% 30.27 in 8.0 mi Calm Calm - N/A   Overcast
5:58 AM 48.9 °F 45.0 °F 86% 30.29 in 6.0 mi ESE 4.6 mph - 0.00 in Rain Light Rain
6:49 AM 48.2 °F 46.4 °F 93% 30.29 in 2.5 mi East 4.6 mph - 0.04 in Rain Light Rain
6:51 AM 48.0 °F 46.0 °F 93% 30.27 in 2.0 mi ESE 4.6 mph - 0.04 in Rain Light Rain
6:58 AM 48.0 °F 46.9 °F 96% 30.29 in 3.0 mi Variable 3.5 mph - 0.00 in Rain Light Rain
7:07 AM 48.0 °F 46.9 °F 96% 30.29 in 3.0 mi East 4.6 mph - 0.00 in Rain Light Rain
7:37 AM 48.9 °F 48.0 °F 97% 30.29 in 2.5 mi Calm Calm - 0.01 in Rain Light Rain
7:51 AM 48.9 °F 48.0 °F 97% 30.27 in 2.0 mi ENE 4.6 mph - 0.02 in Rain Light Rain
8:51 AM 50.0 °F 48.9 °F 96% 30.27 in 1.5 mi Calm Calm - 0.00 in   Overcast
9:25 AM 52.0 °F 51.1 °F 97% 30.28 in 2.0 mi Variable 3.5 mph - 0.00 in Rain Light Rain
9:35 AM 52.0 °F 51.1 °F 97% 30.28 in 1.8 mi Calm Calm - 0.01 in Rain Light Rain
9:42 AM 52.0 °F 51.1 °F 97% 30.29 in 2.0 mi Calm Calm - 0.01 in   Overcast
9:51 AM 52.0 °F 50.0 °F 93% 30.26 in 1.8 mi Calm Calm - 0.01 in   Mostly Cloudy
10:51 AM 55.9 °F 53.1 °F 90% 30.25 in 4.0 mi Variable 3.5 mph - N/A   Overcast
11:51 AM 59.0 °F 52.0 °F 78% 30.21 in 5.0 mi South 5.8 mph - N/A   Haze
12:51 PM 60.1 °F 52.0 °F 75% 30.18 in 6.0 mi Calm Calm - N/A   Haze
1:51 PM 62.1 °F 52.0 °F 70% 30.15 in 7.0 mi SSE 5.8 mph - N/A   Partly Cloudy
2:51 PM 60.1 °F 52.0 °F 75% 30.14 in 6.0 mi SSE 8.1 mph - N/A   Haze
3:51 PM 57.9 °F 52.0 °F 81% 30.13 in 7.0 mi SSE 5.8 mph - N/A   Clear
4:51 PM 55.9 °F 52.0 °F 87% 30.12 in 8.0 mi Calm Calm - N/A   Clear
5:51 PM 55.0 °F 52.0 °F 89% 30.11 in 7.0 mi Calm Calm - N/A   Clear
6:51 PM 54.0 °F 52.0 °F 93% 30.09 in 6.0 mi Calm Calm - N/A   Clear
7:51 PM 53.1 °F 51.1 °F 93% 30.07 in 5.0 mi Variable 3.5 mph - N/A   Clear
8:51 PM 54.0 °F 51.1 °F 90% 30.05 in 5.0 mi Calm Calm - N/A   Clear
9:51 PM 54.0 °F 51.1 °F 90% 30.04 in 6.0 mi Calm Calm - N/A   Clear
11:51 PM 57.9 °F 51.1 °F 78% 29.97 in 10.0 mi South 6.9 mph - N/A   Scattered Clouds